OBJECT A, 44310

Orbit data source: Space-Track

You're viewing an Uncataloged Satellite

Recently launched and/or uncataloged satellites may have evolving metadata. Metadata may include but not limited to: Owner, Maufacturer, Bus, Motor, and Mission.

OBJECT A, 44310 is a satellite owned by CETG (CN) in LEO that was launched on Wed, 05 Jun 2019 UTC via a CHANG ZHENG 11 launch vehicle from the Yellow Sea Launch Area, China (YSLA). Unknown objects in Earth's orbit typically refer to objects detected orbiting the Earth but have not yet been identified or cataloged. These objects could be anything from previously untracked satellites, spent rocket stages, debris from satellite collisions, or even natural meteoroids temporarily captured by Earth's gravity.

Loading next visibility...
Identifier
44310, 2019-032A
Orbit
LEO
Last TLE update
8 hours ago
Origin
Flag of CNDKJ (CN / PRC)
Manufacturer
DKJ?
Mission
Operational Commercial Technology
Bus & Motor
TIANDI, Unknown motor
Mass
65 kg wet, 65 kg dry
Launch date (UTC)
2019-06-05 (6 years ago)
Launch vehicle
CHANG ZHENG 11
Launch site
Yellow Sea Launch Area, China (YSLA)
Object type
Unknown
Shape & HBR
Box, Unknown HBR
Radar Cross Section
1.500 m², Medium (>0.1 m² and < 1m²)

Expand to show TLE details & history

TLE from 8 hours ago
0 OBJECT A
1 44310U 19032A   25128.91695531  .00008489  00000-0  42493-3 0  9998
2 44310  44.9756  88.6132 0010555 108.9744 251.2280 15.17790679325569
Epoch: 2025-05-08T22:00Z
Definitive object data (Epoch: 2025-05-08T22:00:24.938Z)
Latitude
0.00001°
Longitude
-108.47128°
Altitude
514.862 km
Speed
7.607 km/s
True Right ascension
05h 54m 27s
True Declination
0° 00' 00"
Sunlit
Object was in daylight at TLE epoch
Visualization TLE readout
Latitude
-45.13318°
Longitude
159.94643°
Altitude
533.691 km
Speed
7.592 km/s
Apparent Right ascension
00h 43m 46s
Apparent Declination
-43° 17' 38"
Sunlit
Object is in daylight
Visualization observer readout
Local Sidereal Time
13:39:14
Azimuth
112.576° SE
Elevation
-79.11°
Doppler factor
1
Orbital elements
Apogee altitude
521.401 km
Perigee altitude
506.851 km
Semi-major axis
6,892.263 km
Eccentricity
0.0010555
Inclination
44.9756°
RAAN
88.6132°
Arg. of periapsis
108.9744°
True anomaly
251.11353°
Mean anomaly
251.228°
Eccentric anomaly
251.17076°
Mean motion
3.79315 °/min
BSTAR
0.00042493
Orbital period
94.91 mins
Loading maneuver chart data...
Loading SW <> Apogee altitude chart data...
Loading historical data...
Loading historical data...
Loading historical data...
Loading historical data...
Loading historical data...
Loading historical data...
Loading historical data...

OBJECT A Visibility forecast

Observer location: undefined°, undefined°

Span
Click to sort rows by Start time (UTC) header in descending order
Start Az.
Max El. time (UTC)
Max El. Az.
Max El.
End time (UTC)
End Az.
7 mins2025-05-09 06:22:33.226Z286.657° WNW2025-05-09 06:25:33.226Z241.864° WSW37.622°2025-05-09 06:29:33.226Z132.689° SE
4 mins2025-05-09 23:28:33.226Z166.474° S2025-05-09 23:29:33.226Z145.901° SSE19.197°2025-05-09 23:32:33.226Z93.527° ESE
6 mins2025-05-10 01:06:33.226Z248.287° W2025-05-10 01:08:33.226Z260.829° W43.833°2025-05-10 01:12:33.226Z65.991° ENE
5 mins2025-05-10 02:46:33.226Z297.636° NW2025-05-10 02:48:33.226Z352.413° N32.301°2025-05-10 02:51:33.226Z60.91° ENE
5 mins2025-05-10 04:26:33.226Z309.65° NW2025-05-10 04:28:33.226Z16.409° NNE37.139°2025-05-10 04:31:33.226Z86.682° E
|